WB5OMR-9 Weather Reports


Display with metric or nautical units.
time (UTC)temp
F
wind
direction
speed
MPH
gust
MPH
rain 1hr
in
rain 24hr
in
rain mn
in
humidity
%
barometer
mb
20260509233246 94 0.0 0.0 0.00 0.00 0.00 50 1008.5
20260509232245 94 0.0 0.0 0.00 0.00 0.00 49 1008.5
20260509231243 94 0.0 0.0 0.00 0.00 0.00 49 1008.5
20260509230242 95 0.0 0.0 0.00 0.00 0.00 48 1008.5
20260509225240 96 0.0 0.0 0.00 0.00 0.00 48 1008.1
20260509224239 96 0.0 0.0 0.00 0.00 0.00 48 1008.5
20260509223156 97 0.0 0.0 0.00 0.00 0.00 47 1008.5
20260509222112 97 0.0 0.0 0.00 0.00 0.00 47 1008.5
20260509221111 97 0.0 0.0 0.00 0.00 0.00 47 1008.5
20260509220110 96 0.0 0.0 0.00 0.00 0.00 48 1008.5
20260509215109 96 0.0 0.0 0.00 0.00 0.00 48 1008.5
20260509214108 95 0.0 0.0 0.00 0.00 0.00 49 1008.5
20260509213107 94 0.0 0.0 0.00 0.00 0.00 49 1008.8
20260509212024 94 0.0 0.0 0.00 0.00 0.00 49 1008.8
20260509211022 97 0.0 0.0 0.00 0.00 0.00 47 1008.8
20260509210022 96 0.0 0.0 0.00 0.00 0.00 48 1009.1
20260509205021 96 0.0 0.0 0.00 0.00 0.00 49 1009.8
20260509204019 97 0.0 0.0 0.00 0.00 0.00 48 1009.8
20260509202936 96 0.0 0.0 0.00 0.00 0.00 48 1009.8
20260509201853 97 0.0 0.0 0.00 0.00 0.00 48 1009.5
20260509200852 97 0.0 0.0 0.00 0.00 0.00 48 1009.1
20260509195852 96 0.0 0.0 0.00 0.00 0.00 49 1008.8
20260509194851 96 0.0 0.0 0.00 0.00 0.00 50 1009.5
20260509193849 95 0.0 0.0 0.00 0.00 0.00 52 1009.8
20260509192848 95 0.0 0.0 0.00 0.00 0.00 53 1009.8
20260509191804 94 0.0 0.0 0.00 0.00 0.00 53 1010.2
20260509190721 93 0.0 0.0 0.00 0.00 0.00 55 1010.2
20260509185719 93 0.0 0.0 0.00 0.00 0.00 55 1010.2
20260509184718 93 0.0 0.0 0.00 0.00 0.00 56 1010.5
20260509183717 91 0.0 0.0 0.00 0.00 0.00 59 1010.5
20260509182716 90 0.0 0.0 0.00 0.00 0.00 60 1010.5
20260509181714 90 0.0 0.0 0.00 0.00 0.00 59 1010.8
20260509180713 89 0.0 0.0 0.00 0.00 0.00 61 1010.8
20260509175712 89 0.0 0.0 0.00 0.00 0.00 64 1011.2
20260509174711 89 0.0 0.0 0.00 0.00 0.00 67 1010.8
20260509173628 88 0.0 0.0 0.00 0.00 0.00 69 1010.8
20260509172544 87 0.0 0.0 0.00 0.00 0.00 69 1010.8
20260509171544 86 0.0 0.0 0.00 0.00 0.00 71 1011.2
20260509170543 85 0.0 0.0 0.00 0.00 0.00 72 1011.2
20260509165542 83 0.0 0.0 0.00 0.00 0.00 74 1010.8
20260509164540 83 0.0 0.0 0.00 0.00 0.00 75 1011.2
20260509163539 83 0.0 0.0 0.00 0.00 0.00 75 1011.5
20260509162455 83 0.0 0.0 0.00 0.00 0.00 77 1011.2
20260509161454 83 0.0 0.0 0.00 0.00 0.00 79 1011.2
20260509160453 81 0.0 0.0 0.00 0.00 0.00 82 1011.5
20260509155452 80 0.0 0.0 0.00 0.00 0.00 84 1011.5
20260509154451 79 0.0 0.0 0.00 0.00 0.00 87 1011.5
20260509153450 77 0.0 0.0 0.00 0.00 0.00 88 1011.5
20260509152407 76 0.0 0.0 0.00 0.00 0.00 88 1011.5
20260509151323 76 0.0 0.0 0.00 0.00 0.00 88 1011.5
20260509150322 76 0.0 0.0 0.00 0.00 0.00 88 1011.9
20260509145321 75 0.0 0.0 0.00 0.00 0.00 89 1011.9
20260509144319 75 0.0 0.0 0.00 0.00 0.00 89 1011.5
20260509143236 75 0.0 0.0 0.00 0.00 0.00 89 1011.5
20260509142152 75 0.0 0.0 0.00 0.00 0.00 89 1011.5
20260509141151 75 0.0 0.0 0.00 0.00 0.00 89 1011.2
20260509140150 75 0.0 0.0 0.00 0.00 0.00 89 1011.2
20260509135149 74 0.0 0.0 0.00 0.00 0.00 89 1010.8
20260509134148 74 0.0 0.0 0.00 0.00 0.00 89 1010.8
20260509133104 74 0.0 0.0 0.00 0.00 0.00 88 1011.2
20260509132102 74 0.0 0.0 0.00 0.00 0.00 88 1011.2
20260509131019 74 0.0 0.0 0.00 0.00 0.00 88 1011.2
20260509125936 74 0.0 0.0 0.00 0.00 0.00 88 1011.2
20260509124935 74 0.0 0.0 0.00 0.00 0.00 88 1011.2
20260509123934 74 0.0 0.0 0.00 0.00 0.00 88 1011.2
20260509122933 74 0.0 0.0 0.00 0.00 0.00 88 1010.8
20260509121932 74 0.0 0.0 0.00 0.00 0.00 88 1010.5
20260509120848 74 0.0 0.0 0.00 0.00 0.00 88 1010.2
20260509115805 74 0.0 0.0 0.00 0.00 0.00 88 1010.2
20260509114803 74 0.0 0.0 0.00 0.00 0.00 87 1010.2
20260509113802 74 0.0 0.0 0.00 0.00 0.00 87 1010.2
20260509112801 74 0.0 0.0 0.00 0.00 0.00 88 1010.2
20260509111800 74 0.0 0.0 0.00 0.00 0.00 88 1009.8
20260509110758 74 0.0 0.0 0.00 0.00 0.00 88 1009.8
20260509105757 74 0.0 0.0 0.00 0.00 0.00 88 1009.8
20260509104756 74 0.0 0.0 0.00 0.00 0.00 88 1009.5
20260509103755 74 0.0 0.0 0.00 0.00 0.00 88 1009.5
20260509102753 73 0.0 0.0 0.00 0.00 0.00 88 1009.5
20260509101752 73 0.0 0.0 0.00 0.00 0.00 88 1009.5
20260509100751 73 0.0 0.0 0.00 0.00 0.00 88 1009.8
20260509095750 73 0.0 0.0 0.00 0.00 0.00 87 1009.8
20260509094749 73 0.0 0.0 0.00 0.00 0.00 87 1009.5
20260509093748 73 0.0 0.0 0.00 0.00 0.00 87 1009.1
20260509092747 73 0.0 0.0 0.00 0.00 0.00 87 1008.8
20260509091745 73 0.0 0.0 0.00 0.00 0.00 87 1008.8
20260509090702 73 0.0 0.0 0.00 0.00 0.00 87 1008.8
20260509085701 73 0.0 0.0 0.00 0.00 0.00 87 1008.5
20260509084700 73 0.0 0.0 0.00 0.00 0.00 87 1008.8
20260509083659 73 0.0 0.0 0.00 0.00 0.00 87 1008.5
20260509082657 74 0.0 0.0 0.00 0.00 0.00 87 1008.5
20260509081656 74 0.0 0.0 0.00 0.00 0.00 87 1008.8
20260509080613 74 0.0 0.0 0.00 0.00 0.00 87 1009.1
20260509075529 74 0.0 0.0 0.00 0.00 0.00 87 1009.1
20260509074529 74 0.0 0.0 0.00 0.00 0.00 87 1009.1
20260509073445 74 0.0 0.0 0.00 0.00 0.00 87 1009.5
20260509072402 73 0.0 0.0 0.00 0.00 0.00 86 1009.5
20260509071319 73 0.0 0.0 0.00 0.00 0.00 86 1009.1
20260509070318 73 0.0 0.0 0.00 0.00 0.00 86 1009.5
20260509065316 73 0.0 0.0 0.00 0.00 0.00 85 1009.5
20260509064315 73 0.0 0.0 0.00 0.00 0.00 85 1009.8
20260509063314 74 0.0 0.0 0.00 0.00 0.00 85 1009.8
20260509062313 74 0.0 0.0 0.00 0.00 0.00 85 1010.2
20260509061312 74 0.0 0.0 0.00 0.00 0.00 85 1009.8
20260509060311 74 0.0 0.0 0.00 0.00 0.00 84 1009.8
20260509055309 74 0.0 0.0 0.00 0.00 0.00 84 1009.8
20260509054225 74 0.0 0.0 0.00 0.00 0.00 83 1009.8
20260509053142 74 0.0 0.0 0.00 0.00 0.00 83 1009.8
20260509052059 75 0.0 0.0 0.00 0.00 0.00 83 1010.5
20260509051058 75 0.0 0.0 0.00 0.00 0.00 83 1010.5
20260509050056 75 0.0 0.0 0.00 0.00 0.00 83 1010.8
20260509045055 75 0.0 0.0 0.00 0.00 0.00 83 1010.5
20260509044054 75 0.0 0.0 0.00 0.00 0.00 83 1010.5
20260509043053 75 0.0 0.0 0.00 0.00 0.00 83 1010.8
20260509042052 74 0.0 0.0 0.00 0.00 0.00 82 1010.5
20260509041051 75 0.0 0.0 0.00 0.00 0.00 82 1010.5
20260509040050 75 0.0 0.0 0.00 0.00 0.00 82 1010.2
20260509035007 75 0.0 0.0 0.00 0.00 0.00 81 1009.8
20260509033924 75 0.0 0.0 0.00 0.00 0.00 81 1009.8
20260509032923 75 0.0 0.0 0.00 0.00 0.00 81 1009.5
20260509031922 75 0.0 0.0 0.00 0.00 0.00 81 1009.1
20260509030921 75 0.0 0.0 0.00 0.00 0.00 80 1008.8
20260509025920 75 0.0 0.0 0.00 0.00 0.00 79 1008.8
20260509024919 75 0.0 0.0 0.00 0.00 0.00 79 1008.8
20260509023918 76 0.0 0.0 0.00 0.00 0.00 78 1008.8
20260509022834 76 0.0 0.0 0.00 0.00 0.00 77 1008.8
20260509021834 76 0.0 0.0 0.00 0.00 0.00 77 1008.8
20260509020833 76 0.0 0.0 0.00 0.00 0.00 76 1008.8
20260509015832 76 0.0 0.0 0.00 0.00 0.00 76 1008.5
20260509014831 77 0.0 0.0 0.00 0.00 0.00 75 1008.1
20260509013829 77 0.0 0.0 0.00 0.00 0.00 75 1008.1
20260509012828 78 0.0 0.0 0.00 0.00 0.00 74 1008.1
20260509011826 78 0.0 0.0 0.00 0.00 0.00 73 1007.8
20260509010825 79 0.0 0.0 0.00 0.00 0.00 72 1007.8
20260509005742 79 0.0 0.0 0.00 0.00 0.00 71 1008.1
20260509004659 80 0.0 0.0 0.00 0.00 0.00 71 1008.1
20260509003658 80 0.0 0.0 0.00 0.00 0.00 71 1008.1
20260509002657 80 0.0 0.0 0.00 0.00 0.00 70 1007.8
20260509001656 81 0.0 0.0 0.00 0.00 0.00 69 1008.1
20260509000655 81 0.0 0.0 0.00 0.00 0.00 69 1008.1
20260508235654 82 0.0 0.0 0.00 0.00 0.00 68 1008.1
20260508234611 82 0.0 0.0 0.00 0.00 0.00 69 1008.1
20260508233610 82 0.0 0.0 0.00 0.00 0.00 68 1007.8